• In Switzerland
  • List of Countries
  • For 7 days
  • Water Temperature
  • Satellite Maps
  • Weather Map
  • Weather Widgets
  • user-avatar
    Login

    Hourly Weather Sablino

    Today, 26 September, Wednesday

    Time Temperature Precipitation Wind Pressure Humidity
    00:00 +7°C° 0 mm 5 mps 749 mmHg 78%
    01:00 +6°C° 0 mm 4 mps 749 mmHg 79%
    02:00 +6°C° 0 mm 4 mps 750 mmHg 81%
    03:00 +6°C° 0 mm 4 mps 750 mmHg 82%
    04:00 +5°C° 0 mm 4 mps 751 mmHg 84%
    05:00 +4°C° 0 mm 4 mps 751 mmHg 87%
    06:00 +4°C° 0 mm 3 mps 752 mmHg 89%
    07:00 +5°C° 0 mm 4 mps 753 mmHg 84%
    08:00 +6°C° 0 mm 4 mps 753 mmHg 79%
    09:00 +6°C° 0 mm 4 mps 754 mmHg 74%
    10:00 +7°C° 0 mm 4 mps 754 mmHg 68%
    11:00 +8°C° 0 mm 4 mps 755 mmHg 62%
    12:00 +10°C° 0 mm 4 mps 755 mmHg 56%
    13:00 +10°C° 0 mm 4 mps 755 mmHg 55%
    14:00 +10°C° 0 mm 4 mps 755 mmHg 53%
    15:00 +10°C° 0 mm 4 mps 756 mmHg 52%
    16:00 +10°C° 0 mm 3 mps 756 mmHg 55%
    17:00 +9°C° 0 mm 3 mps 756 mmHg 58%
    18:00 +8°C° 0 mm 2 mps 756 mmHg 61%
    19:00 +7°C° 0 mm 2 mps 755 mmHg 64%
    20:00 +5°C° 0 mm 3 mps 755 mmHg 67%
    21:00 +5°C° 0 mm 3 mps 755 mmHg 69%
    22:00 +4°C° 0 mm 3 mps 755 mmHg 69%
    23:00 +4°C° 0 mm 4 mps 754 mmHg 70%

    Tomorrow, 27 September, Thursday

    Time Temperature Precipitation Wind Pressure Humidity
    00:00 +4°C° 0 mm 4 mps 754 mmHg 70%
    01:00 +5°C° 0 mm 5 mps 753 mmHg 68%
    02:00 +5°C° 0 mm 5 mps 752 mmHg 67%
    03:00 +4°C° 0 mm 6 mps 751 mmHg 65%
    04:00 +4°C° 0.1 mm 7 mps 750 mmHg 65%
    05:00 +5°C° 0.1 mm 7 mps 749 mmHg 64%
    06:00 +5°C° 0.1 mm 8 mps 748 mmHg 63%
    07:00 +5°C° 1 mm 8 mps 747 mmHg 68%
    08:00 +3°C° 1 mm 9 mps 747 mmHg 72%
    09:00 +3°C° 1 mm 9 mps 746 mmHg 77%
    10:00 +3°C° 1.4 mm 9 mps 745 mmHg 79%
    11:00 +3°C° 1.4 mm 9 mps 745 mmHg 82%
    12:00 +5°C° 1.4 mm 9 mps 744 mmHg 84%
    13:00 +5°C° 0.7 mm 8 mps 744 mmHg 84%
    14:00 +6°C° 0.7 mm 8 mps 744 mmHg 84%
    15:00 +8°C° 0.7 mm 7 mps 743 mmHg 84%
    16:00 +8°C° 0.3 mm 7 mps 744 mmHg 82%
    17:00 +8°C° 0.3 mm 6 mps 744 mmHg 80%
    18:00 +8°C° 0.3 mm 5 mps 744 mmHg 78%
    19:00 +7°C° 0 mm 5 mps 745 mmHg 79%
    20:00 +6°C° 0 mm 5 mps 745 mmHg 80%
    21:00 +6°C° 0 mm 4 mps 746 mmHg 82%
    22:00 +6°C° 0 mm 4 mps 746 mmHg 82%
    23:00 +6°C° 0 mm 4 mps 746 mmHg 83%

    Day after tomorrow, 28 September, Friday

    Time Temperature Precipitation Wind Pressure Humidity
    00:00 +5°C° 0 mm 4 mps 746 mmHg 84%
    01:00 +5°C° 0 mm 4 mps 746 mmHg 85%
    02:00 +5°C° 0 mm 5 mps 747 mmHg 86%
    03:00 +5°C° 0 mm 5 mps 747 mmHg 88%
    04:00 +5°C° 0 mm 5 mps 746 mmHg 89%
    05:00 +5°C° 0 mm 5 mps 746 mmHg 89%
    06:00 +5°C° 0 mm 5 mps 746 mmHg 90%
    07:00 +5°C° 0 mm 6 mps 745 mmHg 84%
    08:00 +8°C° 0 mm 7 mps 745 mmHg 78%
    09:00 +9°C° 0 mm 8 mps 744 mmHg 73%
    10:00 +10°C° 0 mm 9 mps 744 mmHg 71%
    11:00 +12°C° 0 mm 9 mps 743 mmHg 69%
    12:00 +13°C° 0 mm 10 mps 743 mmHg 67%
    13:00 +13°C° 0 mm 10 mps 742 mmHg 70%
    14:00 +13°C° 0 mm 9 mps 742 mmHg 72%
    15:00 +12°C° 0 mm 9 mps 742 mmHg 74%
    16:00 +12°C° 0.2 mm 9 mps 742 mmHg 76%
    17:00 +13°C° 0.2 mm 9 mps 742 mmHg 77%
    18:00 +13°C° 0.2 mm 9 mps 742 mmHg 78%
    19:00 +12°C° 0.5 mm 8 mps 743 mmHg 80%
    20:00 +11°C° 0.5 mm 7 mps 743 mmHg 82%
    21:00 +10°C° 0.5 mm 6 mps 744 mmHg 83%
    22:00 +8°C° 0 mm 5 mps 745 mmHg 84%
    23:00 +6°C° 0 mm 4 mps 746 mmHg 85%

    29 September, Saturday

    Time Temperature Precipitation Wind Pressure Humidity
    00:00 +5°C° 0 mm 3 mps 747 mmHg 86%
    01:00 +4°C° 0 mm 3 mps 748 mmHg 87%
    02:00 +3°C° 0 mm 3 mps 749 mmHg 88%
    03:00 +4°C° 0 mm 2 mps 750 mmHg 89%
    04:00 +3°C° 0 mm 2 mps 750 mmHg 89%
    05:00 +3°C° 0 mm 2 mps 751 mmHg 90%
    06:00 +3°C° 0 mm 2 mps 751 mmHg 90%
    07:00 +3°C° 0 mm 3 mps 752 mmHg 84%
    08:00 +5°C° 0 mm 3 mps 752 mmHg 78%
    09:00 +7°C° 0 mm 3 mps 753 mmHg 72%
    10:00 +8°C° 0 mm 3 mps 753 mmHg 66%
    11:00 +10°C° 0 mm 3 mps 753 mmHg 60%
    12:00 +11°C° 0 mm 4 mps 753 mmHg 54%
    13:00 +11°C° 0 mm 3 mps 753 mmHg 53%
    14:00 +11°C° 0 mm 3 mps 754 mmHg 51%
    15:00 +12°C° 0 mm 3 mps 754 mmHg 49%
    16:00 +11°C° 0 mm 3 mps 754 mmHg 53%
    17:00 +9°C° 0 mm 2 mps 754 mmHg 57%
    18:00 +9°C° 0 mm 1 mps 754 mmHg 61%
    19:00 +9°C° 0 mm 1 mps 755 mmHg 60%
    20:00 +8°C° 0 mm 1 mps 755 mmHg 60%
    21:00 +8°C° 0 mm 1 mps 755 mmHg 59%
    22:00 +8°C° 0 mm 1 mps 756 mmHg 60%
    23:00 +7°C° 0 mm 1 mps 756 mmHg 60%

    30 September, Sunday

    Time Temperature Precipitation Wind Pressure Humidity
    00:00 +7°C° 0 mm 1 mps 756 mmHg 60%
    01:00 +6°C° 0 mm 1 mps 756 mmHg 62%
    02:00 +5°C° 0 mm 1 mps 757 mmHg 65%
    03:00 +4°C° 0 mm 1 mps 757 mmHg 67%
    04:00 +4°C° 0 mm 1 mps 757 mmHg 68%
    05:00 +4°C° 0 mm 1 mps 757 mmHg 70%
    06:00 +2°C° 0 mm 0 mps 758 mmHg 71%
    07:00 +4°C° 0 mm 0 mps 758 mmHg 66%
    08:00 +6°C° 0 mm 1 mps 758 mmHg 60%
    09:00 +8°C° 0 mm 1 mps 758 mmHg 55%
    10:00 +9°C° 0 mm 1 mps 758 mmHg 51%
    11:00 +10°C° 0 mm 1 mps 758 mmHg 47%
    12:00 +10°C° 0 mm 2 mps 758 mmHg 44%
    13:00 +12°C° 0 mm 2 mps 758 mmHg 43%
    14:00 +12°C° 0 mm 2 mps 758 mmHg 42%
    15:00 +12°C° 0 mm 2 mps 758 mmHg 41%
    16:00 +10°C° 0 mm 2 mps 758 mmHg 46%
    17:00 +9°C° 0 mm 1 mps 758 mmHg 51%
    18:00 +8°C° 0 mm 1 mps 758 mmHg 56%
    19:00 +8°C° 0 mm 1 mps 758 mmHg 57%
    20:00 +7°C° 0 mm 1 mps 758 mmHg 59%
    21:00 +7°C° 0 mm 1 mps 758 mmHg 60%
    22:00 +5°C° 0 mm 2 mps 758 mmHg 62%
    23:00 +5°C° 0 mm 2 mps 757 mmHg 63%

    1 October, Monday

    Time Temperature Precipitation Wind Pressure Humidity
    00:00 +5°C° 0 mm 2 mps 757 mmHg 64%
    01:00 +5°C° 0 mm 2 mps 757 mmHg 66%
    02:00 +4°C° 0 mm 2 mps 757 mmHg 68%
    03:00 +4°C° 0 mm 2 mps 757 mmHg 70%
    04:00 +4°C° 0 mm 2 mps 757 mmHg 73%
    05:00 +4°C° 0 mm 2 mps 757 mmHg 75%
    06:00 +4°C° 0 mm 2 mps 756 mmHg 78%
    07:00 +4°C° 0 mm 3 mps 756 mmHg 74%
    08:00 +7°C° 0 mm 3 mps 756 mmHg 70%
    09:00 +8°C° 0 mm 3 mps 756 mmHg 67%
    10:00 +10°C° 0 mm 4 mps 756 mmHg 61%
    11:00 +11°C° 0 mm 4 mps 756 mmHg 55%
    12:00 +13°C° 0 mm 5 mps 756 mmHg 50%
    13:00 +13°C° 0 mm 5 mps 756 mmHg 49%
    14:00 +13°C° 0 mm 5 mps 756 mmHg 47%
    15:00 +14°C° 0 mm 5 mps 755 mmHg 46%
    16:00 +12°C° 0 mm 4 mps 755 mmHg 52%
    17:00 +11°C° 0 mm 3 mps 755 mmHg 58%
    18:00 +9°C° 0 mm 2 mps 755 mmHg 65%
    19:00 +9°C° 0 mm 2 mps 755 mmHg 67%
    20:00 +8°C° 0 mm 2 mps 755 mmHg 70%
    21:00 +7°C° 0 mm 2 mps 756 mmHg 72%
    22:00 +7°C° 0 mm 2 mps 756 mmHg 74%
    23:00 +7°C° 0 mm 2 mps 756 mmHg 75%
    Show more